,,,PA_Meas_PMT16A,,PR_Meas_QMR101_102,,RH_Meas_QMH101,,SR_Meas_QMS101,,TA_Meas_QMH101,,GenWind,,GenWind,
date,time,status,PA,status,PR,status,RH,status,SR,status,TA,status,DirAvg,status,SpdAvg,
2008-12-01, 00:00:04,VALID,1005.24,VALID,0,VALID,89.4105,VALID,0,VALID,26.0985,VALID,90,VALID,0.413281,
2008-12-01, 00:01:04,VALID,1005.23,VALID,0,VALID,89.4105,VALID,0.100563,VALID,26.0771,VALID,25,VALID,0.835938,
2008-12-01, 00:02:04,VALID,1005.2,VALID,0,VALID,89.3952,VALID,0,VALID,26.0985,VALID,96,VALID,0.677344,
2008-12-01, 00:03:04,VALID,1005.21,VALID,0,VALID,89.4791,VALID,0,VALID,26.118,VALID,55,VALID,0.153125,
2008-12-01, 00:04:04,VALID,1005.2,VALID,0,VALID,89.4334,VALID,0,VALID,26.0985,VALID,60,VALID,0.327344,
2008-12-01, 00:05:04,VALID,1005.17,VALID,0,VALID,89.4944,VALID,0,VALID,26.0985,VALID,56,VALID,0.241797,
2008-12-01, 00:06:04,VALID,1005.21,VALID,0,VALID,89.502,VALID,0,VALID,26.0576,VALID,53,VALID,0.471484,
2008-12-01, 00:07:04,VALID,1005.18,VALID,0,VALID,89.5936,VALID,0.100563,VALID,26.0791,VALID,48,VALID,0.489062,
2008-12-01, 00:08:04,VALID,1005.17,VALID,0,VALID,89.6699,VALID,0,VALID,26.0576,VALID,51,VALID,0.316797,
2008-12-01, 00:09:04,VALID,1005.15,VALID,0,VALID,89.6927,VALID,0,VALID,26.0985,VALID,15,VALID,0.435547,
2008-12-01, 00:10:05,VALID,1005.14,VALID,0,VALID,89.6088,VALID,0,VALID,26.0791,VALID,37,VALID,1.01875,
2008-12-01, 00:11:05,VALID,1005.16,VALID,0,VALID,89.4486,VALID,0,VALID,26.1395,VALID,28,VALID,0.61875,
2008-12-01, 00:12:05,VALID,1005.14,VALID,0,VALID,89.4791,VALID,0,VALID,26.159,VALID,23,VALID,0.613672,
2008-12-01, 00:13:05,VALID,1005.1,VALID,0,VALID,89.4181,VALID,0,VALID,26.1395,VALID,27,VALID,1.33008,
2008-12-01, 00:14:05,VALID,1005.09,VALID,0,VALID,89.4334,VALID,0,VALID,26.1375,VALID,25,VALID,0.638672,
2008-12-01, 00:15:05,VALID,1005.07,VALID,0,VALID,89.3494,VALID,0,VALID,26.1395,VALID,10,VALID,0.861719,
2008-12-01, 00:16:05,VALID,1005.05,VALID,0,VALID,89.3494,VALID,0,VALID,26.1784,VALID,36,VALID,0.257031,
2008-12-01, 00:17:05,VALID,1005.03,VALID,0,VALID,89.3113,VALID,0,VALID,26.159,VALID,57,VALID,0.407422,
2008-12-01, 00:18:05,VALID,1005.04,VALID,0,VALID,88.8841,VALID,0,VALID,26.2369,VALID,50,VALID,1.59297,
2008-12-01, 00:19:05,VALID,1005.02,VALID,0,VALID,88.6781,VALID,0,VALID,26.3148,VALID,36,VALID,1.17461,
2008-12-01, 00:20:05,VALID,1005.01,VALID,0,VALID,88.6094,VALID,0,VALID,26.3128,VALID,12,VALID,0.909766,
2008-12-01, 00:21:05,VALID,1004.99,VALID,0,VALID,88.5484,VALID,0,VALID,26.3343,VALID,28,VALID,1.23594,
2008-12-01, 00:22:05,VALID,1004.96,VALID,0,VALID,88.3577,VALID,0,VALID,26.3148,VALID,21,VALID,1.92656,
2008-12-01, 00:23:05,VALID,1004.94,VALID,0,VALID,88.2738,VALID,0,VALID,26.3323,VALID,36,VALID,0.973437,
2008-12-01, 00:24:05,VALID,1004.93,VALID,0,VALID,88.2127,VALID,0,VALID,26.3538,VALID,35,VALID,1.21758,
2008-12-01, 00:25:05,VALID,1004.93,VALID,0,VALID,87.9915,VALID,0,VALID,26.3713,VALID,27,VALID,1.24023,
2008-12-01, 00:26:05,VALID,1004.9,VALID,0,VALID,87.8389,VALID,0,VALID,26.4102,VALID,26,VALID,1.40078,
2008-12-01, 00:27:05,VALID,1004.88,VALID,0,VALID,87.755,VALID,0,VALID,26.4687,VALID,21,VALID,0.83125,
2008-12-01, 00:28:05,VALID,1004.88,VALID,0,VALID,87.6253,VALID,0,VALID,26.4687,VALID,31,VALID,0.708203,
2008-12-01, 00:29:05,VALID,1004.88,VALID,0,VALID,87.5643,VALID,0,VALID,26.4492,VALID,21,VALID,0.963281,
2008-12-01, 00:30:05,VALID,1004.84,VALID,0,VALID,87.6024,VALID,0,VALID,26.4492,VALID,41,VALID,0.846875,
2008-12-01, 00:31:05,VALID,1004.83,VALID,0,VALID,87.4651,VALID,0,VALID,26.4492,VALID,39,VALID,1.23477,
2008-12-01, 00:32:05,VALID,1004.8,VALID,0,VALID,87.2896,VALID,0.100563,VALID,26.4881,VALID,21,VALID,1.05977,
2008-12-01, 00:33:05,VALID,1004.82,VALID,0,VALID,87.2744,VALID,0,VALID,26.4881,VALID,24,VALID,1.26992,
2008-12-01, 00:34:05,VALID,1004.8,VALID,0,VALID,87.2896,VALID,0,VALID,26.4901,VALID,32,VALID,0.940625,
2008-12-01, 00:35:05,VALID,1004.79,VALID,0,VALID,87.221,VALID,0,VALID,26.4881,VALID,35,VALID,1.47578,
2008-12-01, 00:36:05,VALID,1004.75,VALID,0,VALID,87.221,VALID,0,VALID,26.5076,VALID,42,VALID,1.17695,
2008-12-01, 00:37:05,VALID,1004.79,VALID,0,VALID,87.2591,VALID,0,VALID,26.5271,VALID,51,VALID,0.815234,
2008-12-01, 00:38:05,VALID,1004.75,VALID,0,VALID,87.3965,VALID,0,VALID,26.4881,VALID,30,VALID,0.917578,
2008-12-01, 00:39:05,VALID,1004.72,VALID,0,VALID,87.6558,VALID,0,VALID,26.4687,VALID,26,VALID,0.660937,
2008-12-01, 00:40:05,VALID,1004.7,VALID,0,VALID,87.7474,VALID,0,VALID,26.3907,VALID,28,VALID,0.487891,
2008-12-01, 00:41:05,VALID,1004.71,VALID,0,VALID,87.6406,VALID,0,VALID,26.4122,VALID,8,VALID,1.33789,
2008-12-01, 00:42:05,VALID,1004.68,VALID,0,VALID,87.755,VALID,0,VALID,26.4122,VALID,34,VALID,0.758984,
2008-12-01, 00:43:05,VALID,1004.68,VALID,0,VALID,87.4727,VALID,0,VALID,26.4122,VALID,36,VALID,1.23281,
2008-12-01, 00:44:05,VALID,1004.65,VALID,0,VALID,87.6711,VALID,0,VALID,26.4707,VALID,60,VALID,0.333594,
2008-12-01, 00:45:05,VALID,1004.63,VALID,0,VALID,87.5643,VALID,0,VALID,26.4707,VALID,59,VALID,0.8,
2008-12-01, 00:46:05,VALID,1004.62,VALID,0,VALID,87.6177,VALID,0,VALID,26.4707,VALID,48,VALID,0.674219,
2008-12-01, 00:47:05,VALID,1004.64,VALID,0,VALID,87.7703,VALID,0,VALID,26.4512,VALID,36,VALID,0.476953,
2008-12-01, 00:48:05,VALID,1004.63,VALID,0,VALID,87.6177,VALID,0,VALID,26.4317,VALID,31,VALID,1.33867,
2008-12-01, 00:49:05,VALID,1004.59,VALID,0,VALID,87.7398,VALID,0,VALID,26.4512,VALID,43,VALID,0.782031,
2008-12-01, 00:50:05,VALID,1004.57,VALID,0,VALID,87.755,VALID,0,VALID,26.4317,VALID,40,VALID,0.839063,
2008-12-01, 00:51:05,VALID,1004.57,VALID,0,VALID,87.8771,VALID,0,VALID,26.4317,VALID,82,VALID,0.538672,
2008-12-01, 00:52:05,VALID,1004.53,VALID,0,VALID,87.8542,VALID,0,VALID,26.4122,VALID,20,VALID,0.817969,
2008-12-01, 00:53:05,VALID,1004.49,VALID,0,VALID,87.9457,VALID,0,VALID,26.3733,VALID,24,VALID,0.653516,
2008-12-01, 00:54:05,VALID,1004.47,VALID,0,VALID,88.1212,VALID,0,VALID,26.3733,VALID,25,VALID,0.684375,
2008-12-01, 00:55:05,VALID,1004.45,VALID,0,VALID,88.3272,VALID,0,VALID,26.3343,VALID,80,VALID,0.632031,
2008-12-01, 00:56:05,VALID,1004.43,VALID,0,VALID,88.289,VALID,0,VALID,26.3343,VALID,9,VALID,0.521875,
2008-12-01, 00:57:05,VALID,1004.44,VALID,0,VALID,88.4035,VALID,0,VALID,26.3128,VALID,34,VALID,0.690625,
2008-12-01, 00:58:05,VALID,1004.43,VALID,0,VALID,88.3195,VALID,0,VALID,26.3713,VALID,40,VALID,0.938281,
2008-12-01, 00:59:05,VALID,1004.42,VALID,0,VALID,88.1136,VALID,0,VALID,26.4492,VALID,58,VALID,0.966016,
2008-12-01, 01:00:05,VALID,1004.41,VALID,0,VALID,88.0907,VALID,0,VALID,26.4901,VALID,45,VALID,0.512109,
2008-12-01, 01:01:05,VALID,1004.37,VALID,0,VALID,87.9152,VALID,0,VALID,26.4707,VALID,41,VALID,1.5,
2008-12-01, 01:02:05,VALID,1004.37,VALID,0,VALID,88.1059,VALID,0,VALID,26.4707,VALID,106,VALID,0.73125,
2008-12-01, 01:03:05,VALID,1004.36,VALID,0,VALID,88.1517,VALID,0,VALID,26.4512,VALID,101,VALID,0.653906,
2008-12-01, 01:04:05,VALID,1004.33,VALID,0,VALID,88.3729,VALID,0,VALID,26.3907,VALID,59,VALID,0.21875,
2008-12-01, 01:05:05,VALID,1004.32,VALID,0,VALID,88.495,VALID,0,VALID,26.3927,VALID,59,VALID,0.257813,
2008-12-01, 01:06:05,VALID,1004.26,VALID,0,VALID,88.5255,VALID,0,VALID,26.3343,VALID,89,VALID,0.751562,
2008-12-01, 01:07:05,VALID,1004.28,VALID,0,VALID,88.4721,VALID,0,VALID,26.3343,VALID,21,VALID,0.862891,
2008-12-01, 01:08:05,VALID,1004.25,VALID,0,VALID,88.556,VALID,0,VALID,26.2933,VALID,38,VALID,0.666016,
2008-12-01, 01:09:05,VALID,1004.21,VALID,0,VALID,88.6781,VALID,0,VALID,26.3148,VALID,41,VALID,0.821484,
2008-12-01, 01:10:05,VALID,1004.23,VALID,0,VALID,88.6705,VALID,0.100563,VALID,26.3128,VALID,41,VALID,0.516797,
2008-12-01, 01:11:05,VALID,1004.2,VALID,0,VALID,88.762,VALID,0.100563,VALID,26.2913,VALID,43,VALID,0.333984,
2008-12-01, 01:12:05,VALID,1004.2,VALID,0,VALID,88.8688,VALID,0,VALID,26.2719,VALID,15,VALID,0.378906,
2008-12-01, 01:13:05,VALID,1004.19,VALID,0,VALID,88.9604,VALID,0,VALID,26.2739,VALID,15,VALID,0.203516,
2008-12-01, 01:14:05,VALID,1004.17,VALID,0,VALID,89.0061,VALID,0,VALID,26.2329,VALID,22,VALID,0.300781,
2008-12-01, 01:15:05,VALID,1004.16,VALID,0,VALID,89.0367,VALID,0.100563,VALID,26.2134,VALID,23,VALID,0.334375,
2008-12-01, 01:16:05,VALID,1004.18,VALID,0,VALID,88.9146,VALID,0.100563,VALID,26.2134,VALID,30,VALID,1.12266,
2008-12-01, 01:17:05,VALID,1004.12,VALID,0,VALID,88.8917,VALID,0.100563,VALID,26.2739,VALID,12,VALID,1.10469,
2008-12-01, 01:18:05,VALID,1004.16,VALID,0,VALID,88.7544,VALID,0.100563,VALID,26.2739,VALID,20,VALID,1.74648,
2008-12-01, 01:19:05,VALID,1004.14,VALID,0,VALID,88.8536,VALID,0.100563,VALID,26.3323,VALID,22,VALID,0.582031,
2008-12-01, 01:20:05,VALID,1004.16,VALID,0,VALID,88.8841,VALID,0.100563,VALID,26.2913,VALID,51,VALID,0.512109,
2008-12-01, 01:21:05,VALID,1004.15,VALID,0,VALID,88.8383,VALID,0.100563,VALID,26.2933,VALID,25,VALID,0.783984,
2008-12-01, 01:22:05,VALID,1004.14,VALID,0,VALID,88.9451,VALID,0.100563,VALID,26.2739,VALID,53,VALID,0.5875,
2008-12-01, 01:23:05,VALID,1004.09,VALID,0,VALID,89.0138,VALID,0,VALID,26.2349,VALID,57,VALID,0.635938,
2008-12-01, 01:24:05,VALID,1004.05,VALID,0,VALID,89.1587,VALID,0.100563,VALID,26.2329,VALID,37,VALID,0.308984,
2008-12-01, 01:25:05,VALID,1004.06,VALID,0,VALID,89.1816,VALID,0.100563,VALID,26.2329,VALID,70,VALID,0.636328,
2008-12-01, 01:26:05,VALID,1004.07,VALID,0,VALID,89.1892,VALID,0.100563,VALID,26.2544,VALID,48,VALID,0.479297,
2008-12-01, 01:27:05,VALID,1004.07,VALID,0,VALID,89.2655,VALID,0.100563,VALID,26.2349,VALID,24,VALID,0.357031,
2008-12-01, 01:28:05,VALID,1004.05,VALID,0,VALID,89.3571,VALID,0,VALID,26.2154,VALID,24,VALID,0.0617188,
2008-12-01, 01:29:05,VALID,1004.04,VALID,0,VALID,89.4028,VALID,0,VALID,26.1959,VALID,24,VALID,0.221875,
2008-12-01, 01:30:05,VALID,1004.03,VALID,0,VALID,89.3876,VALID,0,VALID,26.1959,VALID,26,VALID,1.01328,
2008-12-01, 01:31:05,VALID,1004.02,VALID,0,VALID,89.2503,VALID,0.100563,VALID,26.2349,VALID,20,VALID,1.15195,
2008-12-01, 01:32:05,VALID,1003.99,VALID,0,VALID,89.1282,VALID,0.100563,VALID,26.2524,VALID,29,VALID,0.979297,
2008-12-01, 01:33:05,VALID,1004,VALID,0,VALID,89.0824,VALID,0.100563,VALID,26.3128,VALID,62,VALID,1.00039,
2008-12-01, 01:34:05,VALID,1003.97,VALID,0,VALID,88.9833,VALID,0.100563,VALID,26.3323,VALID,73,VALID,0.678125,
2008-12-01, 01:35:05,VALID,1003.95,VALID,0,VALID,88.8993,VALID,0.100563,VALID,26.3518,VALID,70,VALID,0.701953,
2008-12-01, 01:36:05,VALID,1003.9,VALID,0,VALID,88.8993,VALID,0,VALID,26.3303,VALID,64,VALID,0.414453,
2008-12-01, 01:37:05,VALID,1003.88,VALID,0,VALID,88.8612,VALID,0,VALID,26.3518,VALID,29,VALID,0.633203,
2008-12-01, 01:38:05,VALID,1003.87,VALID,0,VALID,88.9146,VALID,0,VALID,26.3713,VALID,32,VALID,0.144531,
2008-12-01, 01:39:05,VALID,1003.85,VALID,0,VALID,88.8078,VALID,0,VALID,26.3108,VALID,41,VALID,1.15,
2008-12-01, 01:40:05,VALID,1003.83,VALID,0,VALID,88.9375,VALID,0,VALID,26.2913,VALID,55,VALID,0.552344,
2008-12-01, 01:41:05,VALID,1003.83,VALID,0,VALID,88.8993,VALID,0,VALID,26.2933,VALID,29,VALID,1.86484,
2008-12-01, 01:42:05,VALID,1003.84,VALID,0,VALID,88.8612,VALID,0.100563,VALID,26.3108,VALID,47,VALID,0.613672,
2008-12-01, 01:43:05,VALID,1003.84,VALID,0,VALID,88.7468,VALID,0.100563,VALID,26.3518,VALID,44,VALID,1.14102,
2008-12-01, 01:44:05,VALID,1003.83,VALID,0,VALID,88.6171,VALID,0.100563,VALID,26.3518,VALID,36,VALID,0.898828,
2008-12-01, 01:45:05,VALID,1003.81,VALID,0,VALID,88.5866,VALID,0.100563,VALID,26.3907,VALID,8,VALID,0.665234,
2008-12-01, 01:46:05,VALID,1003.81,VALID,0,VALID,88.4035,VALID,0.100563,VALID,26.3713,VALID,11,VALID,1.9668,
2008-12-01, 01:47:05,VALID,1003.8,VALID,0,VALID,88.3653,VALID,0,VALID,26.4297,VALID,28,VALID,1.05117,
2008-12-01, 01:48:05,VALID,1003.82,VALID,0,VALID,88.1593,VALID,0.100563,VALID,26.4277,VALID,7,VALID,1.28594,
2008-12-01, 01:49:05,VALID,1003.8,VALID,0,VALID,88.1059,VALID,0.100563,VALID,26.4492,VALID,18,VALID,1.57969,
2008-12-01, 01:50:05,VALID,1003.75,VALID,0,VALID,88.1975,VALID,0.100563,VALID,26.4687,VALID,27,VALID,0.76875,
2008-12-01, 01:51:05,VALID,1003.78,VALID,0,VALID,88.228,VALID,0.100563,VALID,26.4492,VALID,7,VALID,0.594531,
2008-12-01, 01:52:05,VALID,1003.74,VALID,0,VALID,88.2127,VALID,0,VALID,26.3693,VALID,27,VALID,1.12305,
2008-12-01, 01:53:05,VALID,1003.71,VALID,0,VALID,88.3348,VALID,0.100563,VALID,26.3907,VALID,28,VALID,0.691016,
2008-12-01, 01:54:05,VALID,1003.71,VALID,0,VALID,88.2967,VALID,0.100563,VALID,26.3907,VALID,52,VALID,1.65703,
2008-12-01, 01:55:05,VALID,1003.71,VALID,0,VALID,88.3043,VALID,0,VALID,26.3907,VALID,9,VALID,0.630078,
2008-12-01, 01:56:05,VALID,1003.71,VALID,0,VALID,88.2738,VALID,0,VALID,26.3733,VALID,20,VALID,1.26914,
2008-12-01, 01:57:05,VALID,1003.7,VALID,0,VALID,88.2509,VALID,0,VALID,26.3927,VALID,41,VALID,1.41602,
2008-12-01, 01:58:05,VALID,1003.67,VALID,0,VALID,88.3195,VALID,0,VALID,26.3518,VALID,31,VALID,0.755078,
2008-12-01, 01:59:05,VALID,1003.68,VALID,0,VALID,88.2585,VALID,0,VALID,26.3927,VALID,18,VALID,1.03359,
2008-12-01, 02:00:05,VALID,1003.66,VALID,0,VALID,88.0831,VALID,0,VALID,26.3927,VALID,61,VALID,0.936328,
2008-12-01, 02:01:05,VALID,1003.65,VALID,0,VALID,88.1441,VALID,0,VALID,26.4122,VALID,17,VALID,0.69375,
2008-12-01, 02:02:05,VALID,1003.63,VALID,0,VALID,87.8923,VALID,0,VALID,26.3733,VALID,50,VALID,0.94375,
2008-12-01, 02:03:05,VALID,1003.65,VALID,0,VALID,88.022,VALID,0,VALID,26.3733,VALID,52,VALID,0.569531,
2008-12-01, 02:04:05,VALID,1003.61,VALID,0,VALID,87.9915,VALID,0,VALID,26.3538,VALID,74,VALID,0.789063,
2008-12-01, 02:05:05,VALID,1003.59,VALID,0,VALID,88.0907,VALID,0,VALID,26.3538,VALID,91,VALID,0.260938,
2008-12-01, 02:06:05,VALID,1003.61,VALID,0,VALID,87.8771,VALID,0,VALID,26.3343,VALID,53,VALID,1.28906,
2008-12-01, 02:07:05,VALID,1003.54,VALID,0,VALID,87.9,VALID,0,VALID,26.3733,VALID,79,VALID,1.14375,
2008-12-01, 02:08:05,VALID,1003.56,VALID,0,VALID,88.0068,VALID,0,VALID,26.3538,VALID,2,VALID,0.691797,
2008-12-01, 02:09:05,VALID,1003.56,VALID,0,VALID,88.0831,VALID,0,VALID,26.3148,VALID,30,VALID,0.721875,
2008-12-01, 02:10:05,VALID,1003.55,VALID,0,VALID,88.0144,VALID,0.100563,VALID,26.2933,VALID,29,VALID,1.09063,
2008-12-01, 02:11:05,VALID,1003.52,VALID,0,VALID,88.0373,VALID,0.100563,VALID,26.3128,VALID,55,VALID,0.625,
2008-12-01, 02:12:05,VALID,1003.56,VALID,0,VALID,87.8771,VALID,0.100563,VALID,26.3323,VALID,62,VALID,0.990234,
2008-12-01, 02:13:05,VALID,1003.53,VALID,0,VALID,87.8008,VALID,0,VALID,26.3128,VALID,25,VALID,0.864062,
2008-12-01, 02:14:05,VALID,1003.56,VALID,0,VALID,87.8084,VALID,0.100563,VALID,26.3323,VALID,53,VALID,0.974219,
2008-12-01, 02:15:05,VALID,1003.53,VALID,0,VALID,87.8618,VALID,0,VALID,26.3128,VALID,70,VALID,0.919531,
2008-12-01, 02:16:05,VALID,1003.54,VALID,0,VALID,87.9686,VALID,0,VALID,26.2933,VALID,46,VALID,0.343359,
2008-12-01, 02:17:05,VALID,1003.54,VALID,0,VALID,88.0602,VALID,0,VALID,26.2933,VALID,61,VALID,0.493359,
2008-12-01, 02:18:05,VALID,1003.54,VALID,0,VALID,87.9915,VALID,0,VALID,26.2544,VALID,22,VALID,1.41406,
2008-12-01, 02:19:05,VALID,1003.56,VALID,0,VALID,88.1517,VALID,0,VALID,26.2154,VALID,12,VALID,0.854688,
2008-12-01, 02:20:05,VALID,1003.53,VALID,0,VALID,87.9762,VALID,0,VALID,26.1765,VALID,27,VALID,1.48945,
2008-12-01, 02:21:05,VALID,1003.48,VALID,0,VALID,87.8466,VALID,0,VALID,26.2154,VALID,5,VALID,1.46172,
2008-12-01, 02:22:05,VALID,1003.5,VALID,0,VALID,87.9152,VALID,0.100563,VALID,26.2349,VALID,35,VALID,0.841406,
2008-12-01, 02:23:05,VALID,1003.5,VALID,0,VALID,87.7169,VALID,0,VALID,26.2544,VALID,82,VALID,1.81328,
2008-12-01, 02:24:05,VALID,1003.52,VALID,0,VALID,87.6253,VALID,0,VALID,26.2524,VALID,44,VALID,0.942187,
2008-12-01, 02:25:05,VALID,1003.49,VALID,0,VALID,87.6863,VALID,0,VALID,26.2759,VALID,9,VALID,0.435547,
2008-12-01, 02:26:05,VALID,1003.45,VALID,0,VALID,87.5033,VALID,0,VALID,26.2953,VALID,33,VALID,0.98125,
2008-12-01, 02:27:05,VALID,1003.43,VALID,0,VALID,87.2362,VALID,0,VALID,26.2953,VALID,54,VALID,1.38125,
2008-12-01, 02:28:05,VALID,1003.42,VALID,0,VALID,87.1371,VALID,0,VALID,26.3733,VALID,54,VALID,1.30195,
2008-12-01, 02:29:05,VALID,1003.43,VALID,0,VALID,86.8395,VALID,0,VALID,26.3733,VALID,52,VALID,1.21875,
2008-12-01, 02:30:05,VALID,1003.41,VALID,0,VALID,86.2521,VALID,0,VALID,26.4512,VALID,46,VALID,1.03203,
2008-12-01, 02:31:05,VALID,1003.41,VALID,0,VALID,86.3589,VALID,0,VALID,26.4707,VALID,34,VALID,0.889063,
2008-12-01, 02:32:05,VALID,1003.39,VALID,0,VALID,86.6107,VALID,0,VALID,26.4122,VALID,77,VALID,1.07578,
2008-12-01, 02:33:05,VALID,1003.4,VALID,0,VALID,86.6565,VALID,0,VALID,26.3927,VALID,28,VALID,0.86875,
2008-12-01, 02:34:05,VALID,1003.4,VALID,0,VALID,86.6793,VALID,0,VALID,26.3733,VALID,86,VALID,2.12031,
2008-12-01, 02:35:05,VALID,1003.43,VALID,0,VALID,86.5496,VALID,0,VALID,26.3323,VALID,73,VALID,1.99414,
2008-12-01, 02:36:05,VALID,1003.41,VALID,0,VALID,86.5268,VALID,0,VALID,26.3538,VALID,66,VALID,1.22422,
2008-12-01, 02:37:05,VALID,1003.43,VALID,0,VALID,86.336,VALID,0,VALID,26.3343,VALID,90,VALID,1.90391,
2008-12-01, 02:38:05,VALID,1003.44,VALID,0,VALID,86.5191,VALID,0,VALID,26.3538,VALID,82,VALID,0.766016,
2008-12-01, 02:39:05,VALID,1003.44,VALID,0,VALID,86.4276,VALID,0,VALID,26.3128,VALID,99,VALID,1.75977,
2008-12-01, 02:40:05,VALID,1003.43,VALID,0,VALID,86.4047,VALID,0,VALID,26.2953,VALID,102,VALID,2.11484,
2008-12-01, 02:41:05,VALID,1003.41,VALID,0,VALID,86.4581,VALID,0,VALID,26.2953,VALID,101,VALID,2.0082,
2008-12-01, 02:42:05,VALID,1003.4,VALID,0,VALID,86.4886,VALID,0,VALID,26.2544,VALID,104,VALID,1.45156,
2008-12-01, 02:43:05,VALID,1003.37,VALID,0,VALID,86.542,VALID,0,VALID,26.2564,VALID,84,VALID,2.00664,
2008-12-01, 02:44:05,VALID,1003.36,VALID,0,VALID,86.7861,VALID,0,VALID,26.2369,VALID,99,VALID,0.799219,
2008-12-01, 02:45:05,VALID,1003.33,VALID,0,VALID,86.5039,VALID,0,VALID,26.2349,VALID,30,VALID,1.97148,
2008-12-01, 02:46:05,VALID,1003.34,VALID,0,VALID,85.9622,VALID,0,VALID,26.3538,VALID,32,VALID,2.4625,
2008-12-01, 02:47:05,VALID,1003.31,VALID,0,VALID,85.9546,VALID,0,VALID,26.4122,VALID,42,VALID,1.45898,
2008-12-01, 02:48:05,VALID,1003.29,VALID,0,VALID,85.9775,VALID,0,VALID,26.3713,VALID,51,VALID,1.46641,
2008-12-01, 02:49:05,VALID,1003.27,VALID,0,VALID,85.6266,VALID,0,VALID,26.4297,VALID,38,VALID,1.51055,
2008-12-01, 02:50:05,VALID,1003.22,VALID,0,VALID,85.4358,VALID,0,VALID,26.5096,VALID,66,VALID,0.946875,
2008-12-01, 02:51:04,VALID,1003.21,VALID,0,VALID,85.1383,VALID,0,VALID,26.5291,VALID,63,VALID,1.69297,
2008-12-01, 02:52:04,VALID,1003.2,VALID,0,VALID,85.0925,VALID,0,VALID,26.5701,VALID,50,VALID,1.26016,
2008-12-01, 02:53:04,VALID,1003.16,VALID,0,VALID,84.7263,VALID,0,VALID,26.5681,VALID,38,VALID,1.6332,
2008-12-01, 02:54:04,VALID,1003.14,VALID,0,VALID,84.6577,VALID,0,VALID,26.5876,VALID,75,VALID,1.88789,
2008-12-01, 02:55:04,VALID,1003.12,VALID,0,VALID,85.1841,VALID,0.100563,VALID,26.5641,VALID,31,VALID,0.490234,
2008-12-01, 02:56:04,VALID,1003.1,VALID,0,VALID,85.3519,VALID,0.100563,VALID,26.5076,VALID,30,VALID,1.2625,
2008-12-01, 02:57:04,VALID,1003.08,VALID,0,VALID,85.5045,VALID,0.100563,VALID,26.4881,VALID,79,VALID,1.80156,
2008-12-01, 02:58:04,VALID,1003.1,VALID,0,VALID,85.8173,VALID,0,VALID,26.4492,VALID,35,VALID,0.879687,
2008-12-01, 02:59:04,VALID,1003.06,VALID,0,VALID,85.7486,VALID,0.100563,VALID,26.4277,VALID,64,VALID,1.44805,
2008-12-01, 03:00:04,VALID,1003.03,VALID,0,VALID,85.596,VALID,0.100563,VALID,26.4861,VALID,88,VALID,0.986719,
2008-12-01, 03:01:04,VALID,1003.07,VALID,0,VALID,85.7639,VALID,0,VALID,26.4472,VALID,70,VALID,1.27461,
2008-12-01, 03:02:04,VALID,1003.05,VALID,0,VALID,86.008,VALID,0.100563,VALID,26.4102,VALID,48,VALID,1.09805,
2008-12-01, 03:03:04,VALID,1003.07,VALID,0,VALID,86.2903,VALID,0.100563,VALID,26.3713,VALID,43,VALID,0.568359,
2008-12-01, 03:04:04,VALID,1003.07,VALID,0,VALID,86.3971,VALID,0.100563,VALID,26.3128,VALID,49,VALID,0.739062,
2008-12-01, 03:05:04,VALID,1003.09,VALID,0,VALID,86.4505,VALID,0,VALID,26.2933,VALID,59,VALID,1.28398,
2008-12-01, 03:06:04,VALID,1003.11,VALID,0,VALID,86.3742,VALID,0.100563,VALID,26.2933,VALID,69,VALID,1.67266,
2008-12-01, 03:07:04,VALID,1003.12,VALID,0,VALID,86.42,VALID,0,VALID,26.2719,VALID,85,VALID,1.6875,
2008-12-01, 03:08:04,VALID,1003.1,VALID,0,VALID,86.3818,VALID,0.100563,VALID,26.2739,VALID,45,VALID,1.27344,
2008-12-01, 03:09:04,VALID,1003.11,VALID,0,VALID,86.3208,VALID,0.100563,VALID,26.2544,VALID,21,VALID,1.15781,
2008-12-01, 03:10:04,VALID,1003.08,VALID,0,VALID,86.214,VALID,0,VALID,26.3168,VALID,26,VALID,1.26797,
2008-12-01, 03:11:04,VALID,1003.1,VALID,0,VALID,86.4505,VALID,0,VALID,26.3148,VALID,16,VALID,0.542188,
2008-12-01, 03:12:04,VALID,1003.07,VALID,0,VALID,86.275,VALID,0,VALID,26.2544,VALID,27,VALID,1.42891,
2008-12-01, 03:13:04,VALID,1003.12,VALID,0,VALID,86.6183,VALID,0,VALID,26.2564,VALID,35,VALID,0.95,
2008-12-01, 03:14:04,VALID,1003.09,VALID,0,VALID,86.8243,VALID,0,VALID,26.2174,VALID,38,VALID,0.817969,
2008-12-01, 03:15:04,VALID,1003.06,VALID,0,VALID,86.9311,VALID,0,VALID,26.2174,VALID,51,VALID,1.53203,
2008-12-01, 03:16:04,VALID,1003.09,VALID,0,VALID,86.8472,VALID,0,VALID,26.2759,VALID,35,VALID,0.771875,
2008-12-01, 03:17:04,VALID,1003.03,VALID,0,VALID,86.481,VALID,0,VALID,26.3148,VALID,61,VALID,1.72852,
2008-12-01, 03:18:04,VALID,1003.05,VALID,0,VALID,86.5344,VALID,0,VALID,26.3128,VALID,81,VALID,0.966406,
2008-12-01, 03:19:04,VALID,1003.04,VALID,0,VALID,86.6107,VALID,0,VALID,26.3343,VALID,36,VALID,0.660156,
2008-12-01, 03:20:04,VALID,1003.02,VALID,0,VALID,86.687,VALID,0,VALID,26.2739,VALID,61,VALID,0.958203,
2008-12-01, 03:21:04,VALID,1003.03,VALID,0,VALID,86.5802,VALID,0,VALID,26.3148,VALID,51,VALID,1.28203,
2008-12-01, 03:22:04,VALID,1003.03,VALID,0,VALID,86.3894,VALID,0,VALID,26.3538,VALID,70,VALID,1.75977,
2008-12-01, 03:23:04,VALID,1003.05,VALID,0,VALID,86.3818,VALID,0,VALID,26.3323,VALID,75,VALID,1.41094,
2008-12-01, 03:24:04,VALID,1003.02,VALID,0,VALID,86.1682,VALID,0,VALID,26.3518,VALID,94,VALID,1.73945,
2008-12-01, 03:25:04,VALID,1003.06,VALID,0,VALID,86.336,VALID,0,VALID,26.3907,VALID,70,VALID,0.847266,
2008-12-01, 03:26:04,VALID,1003.02,VALID,0,VALID,86.0843,VALID,0,VALID,26.3323,VALID,34,VALID,1.8207,
2008-12-01, 03:27:04,VALID,1003.02,VALID,0,VALID,86.3742,VALID,0.100563,VALID,26.3128,VALID,69,VALID,0.947266,
2008-12-01, 03:28:04,VALID,1003,VALID,0,VALID,86.5954,VALID,0.100563,VALID,26.2719,VALID,13,VALID,0.453125,
2008-12-01, 03:29:04,VALID,1003.02,VALID,0,VALID,86.6107,VALID,0.100563,VALID,26.2154,VALID,55,VALID,1.07422,
2008-12-01, 03:30:04,VALID,1003.02,VALID,0,VALID,86.7938,VALID,0.100563,VALID,26.1959,VALID,44,VALID,0.680078,
2008-12-01, 03:31:04,VALID,1002.97,VALID,0,VALID,86.8548,VALID,0.100563,VALID,26.155,VALID,30,VALID,0.625,
2008-12-01, 03:32:04,VALID,1003,VALID,0,VALID,86.9692,VALID,0,VALID,26.118,VALID,44,VALID,0.933984,
2008-12-01, 03:33:04,VALID,1002.99,VALID,0,VALID,87.0455,VALID,0.100563,VALID,26.0985,VALID,33,VALID,1.77734,
2008-12-01, 03:34:04,VALID,1003,VALID,0,VALID,87.1142,VALID,0.100563,VALID,26.0966,VALID,17,VALID,1.07813,
2008-12-01, 03:35:04,VALID,1003.02,VALID,0,VALID,86.8853,VALID,0,VALID,26.118,VALID,28,VALID,1.75312,
2008-12-01, 03:36:04,VALID,1003,VALID,0,VALID,86.954,VALID,0.100563,VALID,26.116,VALID,74,VALID,1.29492,
2008-12-01, 03:37:04,VALID,1003.03,VALID,0,VALID,86.9311,VALID,0.100563,VALID,26.1375,VALID,25,VALID,1.04492,
2008-12-01, 03:38:04,VALID,1003.02,VALID,0,VALID,87.0226,VALID,0.100563,VALID,26.118,VALID,43,VALID,0.907422,
2008-12-01, 03:39:04,VALID,1003.06,VALID,0,VALID,87.0684,VALID,0,VALID,26.0985,VALID,45,VALID,1.04492,
2008-12-01, 03:40:04,VALID,1003.06,VALID,0,VALID,87.0989,VALID,0,VALID,26.1005,VALID,76,VALID,1.38555,
2008-12-01, 03:41:04,VALID,1003.04,VALID,0,VALID,86.9006,VALID,0,VALID,26.1395,VALID,66,VALID,1.83906,
2008-12-01, 03:42:04,VALID,1003.04,VALID,0,VALID,86.9235,VALID,0,VALID,26.1784,VALID,72,VALID,0.773828,
2008-12-01, 03:43:04,VALID,1003.07,VALID,0,VALID,86.7327,VALID,0,VALID,26.1804,VALID,58,VALID,2.37812,